Hourly Weather Rugun

Today, 19 April, Monday

Time Temperature Precipitation Wind Pressure Humidity
00:00 +11°C° 0 mm 3 mps 664 mmHg 71%
01:00 +12°C° 0 mm 2 mps 664 mmHg 68%
02:00 +12°C° 0 mm 1 mps 664 mmHg 66%
03:00 +12°C° 0 mm 1 mps 663 mmHg 63%
04:00 +12°C° 0 mm 1 mps 663 mmHg 64%
05:00 +12°C° 0 mm 1 mps 664 mmHg 65%
06:00 +12°C° 0 mm 1 mps 664 mmHg 66%
07:00 +13°C° 0 mm 1 mps 664 mmHg 64%
08:00 +15°C° 0 mm 2 mps 664 mmHg 62%
09:00 +16°C° 0 mm 3 mps 665 mmHg 59%
10:00 +17°C° 0 mm 3 mps 665 mmHg 57%
11:00 +18°C° 0 mm 3 mps 665 mmHg 54%
12:00 +20°C° 0 mm 3 mps 664 mmHg 52%
13:00 +19°C° 0 mm 3 mps 664 mmHg 53%
14:00 +19°C° 0 mm 3 mps 664 mmHg 54%
15:00 +19°C° 0 mm 3 mps 664 mmHg 55%
16:00 +18°C° 0 mm 3 mps 664 mmHg 59%
17:00 +17°C° 0 mm 2 mps 663 mmHg 63%
18:00 +16°C° 0 mm 1 mps 663 mmHg 68%
19:00 +14°C° 0 mm 1 mps 663 mmHg 69%
20:00 +13°C° 0 mm 1 mps 663 mmHg 71%
21:00 +12°C° 0 mm 1 mps 663 mmHg 73%
22:00 +12°C° 0 mm 1 mps 663 mmHg 70%
23:00 +12°C° 0 mm 1 mps 663 mmHg 67%

Tomorrow, 20 April, Tuesday

Time Temperature Precipitation Wind Pressure Humidity
00:00 +13°C° 0 mm 1 mps 663 mmHg 64%
01:00 +12°C° 0 mm 1 mps 663 mmHg 64%
02:00 +12°C° 0 mm 1 mps 663 mmHg 65%
03:00 +12°C° 0 mm 2 mps 663 mmHg 65%
04:00 +12°C° 0 mm 2 mps 662 mmHg 64%
05:00 +13°C° 0 mm 1 mps 662 mmHg 64%
06:00 +13°C° 0 mm 1 mps 662 mmHg 63%
07:00 +14°C° 0 mm 1 mps 662 mmHg 60%
08:00 +16°C° 0 mm 1 mps 663 mmHg 57%
09:00 +18°C° 0 mm 1 mps 663 mmHg 54%
10:00 +19°C° 0 mm 2 mps 663 mmHg 49%
11:00 +21°C° 0 mm 2 mps 663 mmHg 44%
12:00 +23°C° 0 mm 2 mps 663 mmHg 39%
13:00 +24°C° 0 mm 2 mps 662 mmHg 37%
14:00 +25°C° 0 mm 2 mps 662 mmHg 34%
15:00 +26°C° 0 mm 3 mps 662 mmHg 31%
16:00 +24°C° 0 mm 2 mps 662 mmHg 38%
17:00 +21°C° 0 mm 2 mps 661 mmHg 45%
18:00 +21°C° 0 mm 1 mps 661 mmHg 51%
19:00 +19°C° 0.1 mm 2 mps 661 mmHg 51%
20:00 +19°C° 0.1 mm 3 mps 662 mmHg 51%
21:00 +18°C° 0.1 mm 3 mps 662 mmHg 52%
22:00 +18°C° 0 mm 3 mps 662 mmHg 52%
23:00 +18°C° 0 mm 4 mps 662 mmHg 51%

Day after tomorrow, 21 April, Wednesday

Time Temperature Precipitation Wind Pressure Humidity
00:00 +18°C° 0 mm 4 mps 662 mmHg 51%
01:00 +17°C° 0 mm 4 mps 662 mmHg 53%
02:00 +17°C° 0 mm 4 mps 662 mmHg 54%
03:00 +16°C° 0 mm 3 mps 662 mmHg 55%
04:00 +16°C° 0 mm 3 mps 662 mmHg 60%
05:00 +15°C° 0 mm 2 mps 663 mmHg 65%
06:00 +14°C° 0 mm 1 mps 663 mmHg 70%
07:00 +15°C° 0 mm 2 mps 663 mmHg 67%
08:00 +17°C° 0 mm 2 mps 664 mmHg 64%
09:00 +18°C° 0 mm 3 mps 664 mmHg 61%
10:00 +19°C° 0 mm 3 mps 664 mmHg 59%
11:00 +19°C° 0 mm 4 mps 664 mmHg 57%
12:00 +20°C° 0 mm 4 mps 664 mmHg 55%
13:00 +19°C° 0.1 mm 4 mps 664 mmHg 56%
14:00 +19°C° 0.1 mm 4 mps 664 mmHg 58%
15:00 +18°C° 0.1 mm 4 mps 663 mmHg 59%
16:00 +17°C° 0.7 mm 3 mps 664 mmHg 65%
17:00 +15°C° 0.7 mm 2 mps 664 mmHg 71%
18:00 +14°C° 0.7 mm 2 mps 664 mmHg 77%
19:00 +13°C° 0 mm 1 mps 665 mmHg 81%
20:00 +12°C° 0 mm 1 mps 665 mmHg 85%
21:00 +11°C° 0 mm 1 mps 666 mmHg 89%
22:00 +11°C° 0 mm 1 mps 665 mmHg 88%
23:00 +11°C° 0 mm 1 mps 665 mmHg 88%

22 April, Thursday

Time Temperature Precipitation Wind Pressure Humidity
00:00 +10°C° 0 mm 1 mps 665 mmHg 88%
01:00 +10°C° 0 mm 1 mps 665 mmHg 88%
02:00 +10°C° 0 mm 1 mps 665 mmHg 89%
03:00 +8°C° 0 mm 0 mps 665 mmHg 89%
04:00 +9°C° 0 mm 0 mps 665 mmHg 88%
05:00 +9°C° 0 mm 0 mps 665 mmHg 87%
06:00 +10°C° 0 mm 1 mps 665 mmHg 86%
07:00 +11°C° 0 mm 1 mps 665 mmHg 79%
08:00 +13°C° 0 mm 2 mps 665 mmHg 73%
09:00 +14°C° 0 mm 2 mps 666 mmHg 66%
10:00 +14°C° 0 mm 3 mps 666 mmHg 65%
11:00 +16°C° 0 mm 3 mps 666 mmHg 63%
12:00 +15°C° 0 mm 4 mps 666 mmHg 61%
13:00 +14°C° 0 mm 4 mps 666 mmHg 66%
14:00 +13°C° 0 mm 4 mps 666 mmHg 71%
15:00 +12°C° 0 mm 4 mps 666 mmHg 77%
16:00 +11°C° 0.1 mm 3 mps 666 mmHg 82%
17:00 +10°C° 0.1 mm 2 mps 666 mmHg 86%
18:00 +9°C° 0.1 mm 2 mps 666 mmHg 91%
19:00 +9°C° 0 mm 2 mps 666 mmHg 92%
20:00 +9°C° 0 mm 1 mps 666 mmHg 92%
21:00 +9°C° 0 mm 1 mps 666 mmHg 93%
22:00 +9°C° 0 mm 1 mps 666 mmHg 92%
23:00 +9°C° 0 mm 1 mps 666 mmHg 92%

23 April, Friday

Time Temperature Precipitation Wind Pressure Humidity
00:00 +9°C° 0 mm 1 mps 665 mmHg 91%
01:00 +9°C° 0 mm 1 mps 665 mmHg 91%
02:00 +9°C° 0 mm 1 mps 665 mmHg 91%
03:00 +9°C° 0 mm 1 mps 665 mmHg 91%
04:00 +9°C° 0 mm 1 mps 665 mmHg 91%
05:00 +8°C° 0 mm 1 mps 666 mmHg 91%
06:00 +7°C° 0 mm 2 mps 666 mmHg 90%
07:00 +7°C° 0 mm 2 mps 666 mmHg 90%
08:00 +7°C° 0 mm 2 mps 666 mmHg 90%
09:00 +7°C° 0 mm 2 mps 666 mmHg 89%
10:00 +7°C° 0 mm 2 mps 666 mmHg 88%
11:00 +8°C° 0 mm 2 mps 666 mmHg 87%
12:00 +8°C° 0 mm 2 mps 666 mmHg 85%
13:00 +8°C° 0 mm 2 mps 666 mmHg 84%
14:00 +8°C° 0 mm 2 mps 666 mmHg 83%
15:00 +9°C° 0 mm 1 mps 666 mmHg 82%
16:00 +9°C° 0 mm 1 mps 666 mmHg 83%
17:00 +9°C° 0 mm 1 mps 667 mmHg 84%
18:00 +9°C° 0 mm 1 mps 667 mmHg 85%
19:00 +8°C° 0 mm 1 mps 667 mmHg 85%
20:00 +8°C° 0 mm 1 mps 667 mmHg 86%
21:00 +8°C° 0 mm 1 mps 667 mmHg 87%
22:00 +8°C° 0 mm 1 mps 667 mmHg 85%
23:00 +8°C° 0 mm 1 mps 666 mmHg 84%

24 April, Saturday

Time Temperature Precipitation Wind Pressure Humidity
00:00 +8°C° 0 mm 1 mps 666 mmHg 83%
01:00 +7°C° 0 mm 1 mps 666 mmHg 83%
02:00 +7°C° 0 mm 1 mps 666 mmHg 83%
03:00 +6°C° 0 mm 2 mps 665 mmHg 82%
04:00 +8°C° 0 mm 1 mps 666 mmHg 80%
05:00 +8°C° 0 mm 1 mps 666 mmHg 79%
06:00 +8°C° 0 mm 0 mps 666 mmHg 77%
07:00 +10°C° 0 mm 1 mps 666 mmHg 72%
08:00 +10°C° 0 mm 2 mps 666 mmHg 67%
09:00 +13°C° 0 mm 2 mps 666 mmHg 62%
10:00 +12°C° 0 mm 3 mps 666 mmHg 60%
11:00 +13°C° 0 mm 3 mps 666 mmHg 59%
12:00 +14°C° 0 mm 4 mps 666 mmHg 58%
13:00 +13°C° 0 mm 4 mps 666 mmHg 62%
14:00 +13°C° 0 mm 3 mps 666 mmHg 65%
15:00 +12°C° 0 mm 3 mps 666 mmHg 69%
16:00 +12°C° 0 mm 3 mps 666 mmHg 72%
17:00 +12°C° 0 mm 2 mps 666 mmHg 75%
18:00 +11°C° 0 mm 1 mps 666 mmHg 79%
19:00 +11°C° 0 mm 1 mps 666 mmHg 80%
20:00 +10°C° 0 mm 1 mps 666 mmHg 82%
21:00 +9°C° 0 mm 1 mps 666 mmHg 83%
22:00 +9°C° 0 mm 1 mps 666 mmHg 81%
23:00 +9°C° 0 mm 1 mps 665 mmHg 78%
Show more